Algona, IA

12:42 AM CST on February 12, 2016 (GMT -0600)
Algona Municipal

Weather History for KAXA - May, 2014

Change the Weather History Date:

Sunday, May 4, 2014

  Actual Average Record
Temperature  
Mean Temperature 46 °F -  
Max Temperature 53 °F 65 °F 87 °F (2000)
Min Temperature 39 °F 44 °F 32 °F (2005)
Degree Days  
Heating Degree Days 19    
Moisture  
Dew Point 35 °F    
Average Humidity 64    
Maximum Humidity 87    
Minimum Humidity 47    
Precipitation  
Precipitation 0.12 in - - ()
Sea Level Pressure  
Sea Level Pressure 30.01 in    
Wind  
Wind Speed 12 mph (ENE)    
Max Wind Speed 21 mph    
Max Gust Speed 24 mph    
Visibility 10 miles    
Events Rain    
Averages and records for this station are not official NWS values.
T = Trace of Precipitation, MM = Missing Value Source: NWS Daily Summary

Daily Weather History Graph

Daily Weather History Graph

Search for Another Location

Airport or City:

Trip Planner

Search our weather history database for the weather conditions in past years. The results will help you decide how hot, cold, wet, or windy it might be!

Date:

Astronomy

May. 04, 2014 Rise Set
Actual Time 6:06 AM CDT 8:21 PM CDT
Civil Twilight 5:35 AM CDT 8:53 PM CDT
Nautical Twilight 4:56 AM CDT 9:32 PM CDT
Astronomical Twilight 4:13 AM CDT 10:15 PM CDT
Moon 10:30 AM CDT (5/4) 12:28 AM CDT (5/4)
Length of Visible Light 15h 18m
Length of Day
14h 15m
Waxing Crescent, 28% of the Moon is Illuminated
May 4
Waxing Crescent
May 6
First Quarter
May 14
Full
May 21
Last Quarter
May 28
New

Hourly Weather History & Observations

Time (CDT) Temp. Windchill Dew Point Humidity Pressure Visibility Wind Dir Wind Speed Gust Speed Precip Events Conditions
12:15 AM 50.0 °F - 37.4 °F 62% 29.98 in 10.0 mi NNE 6.9 mph - N/A   Overcast
12:35 AM 50.0 °F - 37.4 °F 62% 29.98 in 10.0 mi NNE 10.4 mph - N/A   Overcast
12:55 AM 50.0 °F - 37.4 °F 62% 29.99 in 10.0 mi NNE 11.5 mph - N/A   Overcast
1:15 AM 48.2 °F - 37.4 °F 66% 30.00 in 10.0 mi North 8.1 mph - N/A   Mostly Cloudy
1:35 AM 48.2 °F - 37.4 °F 66% 30.01 in 10.0 mi North 8.1 mph - N/A   Mostly Cloudy
1:55 AM 48.2 °F - 37.4 °F 66% 30.01 in 10.0 mi North 8.1 mph - N/A   Overcast
2:15 AM 46.4 °F 42.9 °F 35.6 °F 66% 30.01 in 10.0 mi North 6.9 mph - N/A   Scattered Clouds
2:35 AM 48.2 °F - 35.6 °F 62% 30.01 in 10.0 mi North 11.5 mph - N/A   Scattered Clouds
2:55 AM 46.4 °F 41.5 °F 35.6 °F 66% 30.02 in 10.0 mi North 10.4 mph 21.9 mph N/A   Partly Cloudy
3:15 AM 46.4 °F 40.4 °F 33.8 °F 62% 30.02 in 10.0 mi North 13.8 mph 23.0 mph N/A   Clear
3:35 AM 44.6 °F 36.9 °F 33.8 °F 66% 30.02 in 10.0 mi North 18.4 mph - N/A   Partly Cloudy
3:55 AM 42.8 °F 34.8 °F 33.8 °F 70% 30.03 in 10.0 mi NNE 17.3 mph 23.0 mph N/A   Clear
4:15 AM 42.8 °F 35.4 °F 32.0 °F 66% 30.03 in 10.0 mi NNE 15.0 mph - N/A   Clear
4:35 AM 42.8 °F 37.0 °F 32.0 °F 66% 30.04 in 10.0 mi NNE 10.4 mph 17.3 mph N/A   Mostly Cloudy
4:55 AM 42.8 °F 36.2 °F 32.0 °F 66% 30.03 in 10.0 mi NNE 12.7 mph - N/A   Overcast
5:15 AM 42.8 °F 37.0 °F 33.8 °F 70% 30.04 in 10.0 mi NNE 10.4 mph - N/A   Overcast
5:35 AM 42.8 °F 36.6 °F 32.0 °F 66% 30.04 in 10.0 mi NNE 11.5 mph - N/A   Overcast
5:55 AM 42.8 °F 36.6 °F 32.0 °F 66% 30.04 in 10.0 mi NNE 11.5 mph - N/A   Overcast
6:15 AM 42.8 °F 36.2 °F 33.8 °F 70% 30.06 in 10.0 mi NNE 12.7 mph - N/A   Overcast
6:35 AM 41.0 °F 35.8 °F 35.6 °F 81% 30.07 in 8.0 mi NNE 8.1 mph - N/A Rain Light Rain
6:55 AM 41.0 °F 34.7 °F 35.6 °F 81% 30.10 in 4.0 mi North 10.4 mph - 0.02 in Rain Light Rain
7:15 AM 39.2 °F 31.2 °F 35.6 °F 87% 30.05 in 3.0 mi NE 13.8 mph - N/A Rain Heavy Rain
7:35 AM 39.2 °F 31.2 °F 35.6 °F 87% 30.08 in 6.0 mi NNE 13.8 mph - N/A Rain Light Rain
7:55 AM 39.2 °F 31.6 °F 35.6 °F 87% 30.11 in 6.0 mi NNE 12.7 mph - 0.09 in Rain Light Rain
8:15 AM 39.2 °F 30.8 °F 35.6 °F 87% 30.11 in 7.0 mi NNE 15.0 mph - N/A Rain Light Rain
8:35 AM 39.2 °F 31.6 °F 35.6 °F 87% 30.09 in 10.0 mi NE 12.7 mph 18.4 mph N/A   Overcast
8:55 AM 41.0 °F 31.6 °F 35.6 °F 81% 30.06 in 10.0 mi NE 20.7 mph - 0.01 in   Scattered Clouds
9:15 AM 41.0 °F 32.5 °F 35.6 °F 81% 30.07 in 10.0 mi NE 17.3 mph 24.2 mph N/A   Mostly Cloudy
9:35 AM 41.0 °F 33.5 °F 35.6 °F 81% 30.07 in 10.0 mi NE 13.8 mph 21.9 mph N/A   Overcast
9:55 AM 39.2 °F 30.2 °F 35.6 °F 87% 30.07 in 10.0 mi ENE 17.3 mph - N/A   Mostly Cloudy
10:15 AM 39.2 °F 31.2 °F 33.8 °F 81% 30.07 in 10.0 mi ENE 13.8 mph 20.7 mph N/A   Mostly Cloudy
10:35 AM 41.0 °F 33.1 °F 33.8 °F 76% 30.07 in 10.0 mi East 15.0 mph - N/A   Overcast
10:55 AM 41.0 °F 33.1 °F 35.6 °F 81% 30.08 in 10.0 mi ENE 15.0 mph - N/A   Overcast
11:15 AM 41.0 °F 33.9 °F 33.8 °F 76% 30.08 in 10.0 mi ENE 12.7 mph 19.6 mph N/A   Overcast
11:35 AM 41.0 °F 33.5 °F 33.8 °F 76% 30.09 in 10.0 mi ENE 13.8 mph - N/A   Overcast
11:55 AM 42.8 °F 35.4 °F 33.8 °F 70% 30.09 in 10.0 mi East 15.0 mph - N/A   Overcast
12:15 PM 42.8 °F 36.6 °F 33.8 °F 70% 30.08 in 10.0 mi East 11.5 mph 18.4 mph N/A   Overcast
12:35 PM 44.6 °F 38.4 °F 33.8 °F 66% 30.07 in 10.0 mi East 12.7 mph - N/A   Overcast
12:55 PM 46.4 °F 40.7 °F 33.8 °F 62% 30.07 in 10.0 mi ESE 12.7 mph - N/A   Overcast
1:15 PM 46.4 °F 40.1 °F 35.6 °F 66% 30.06 in 10.0 mi ENE 15.0 mph - N/A   Mostly Cloudy
1:35 PM 48.2 °F - 35.6 °F 62% 30.05 in 10.0 mi ENE 15.0 mph - N/A   Partly Cloudy
1:55 PM 48.2 °F - 35.6 °F 62% 30.04 in 10.0 mi ENE 16.1 mph - N/A   Clear
2:15 PM 50.0 °F - 35.6 °F 58% 30.03 in 10.0 mi East 12.7 mph 23.0 mph N/A   Clear
2:35 PM 50.0 °F - 33.8 °F 54% 30.02 in 10.0 mi East 15.0 mph - N/A   Clear
2:55 PM 50.0 °F - 35.6 °F 58% 30.02 in 10.0 mi East 13.8 mph 20.7 mph N/A   Clear
3:15 PM 51.8 °F - 35.6 °F 54% 30.01 in 10.0 mi East 15.0 mph - N/A   Clear
3:35 PM 51.8 °F - 33.8 °F 50% 30.00 in 10.0 mi ESE 13.8 mph 23.0 mph N/A   Clear
3:55 PM 51.8 °F - 35.6 °F 54% 29.99 in 10.0 mi ESE 16.1 mph - N/A   Clear
4:15 PM 53.6 °F - 35.6 °F 51% 29.98 in 10.0 mi East 13.8 mph 21.9 mph N/A   Clear
4:35 PM 53.6 °F - 35.6 °F 51% 29.98 in 10.0 mi East 17.3 mph - N/A   Clear
4:55 PM 53.6 °F - 33.8 °F 47% 29.97 in 10.0 mi East 17.3 mph - N/A   Clear
5:15 PM 53.6 °F - 35.6 °F 51% 29.97 in 10.0 mi East 15.0 mph 21.9 mph N/A   Clear
5:35 PM 53.6 °F - 35.6 °F 51% 29.97 in 10.0 mi East 15.0 mph - N/A   Clear
5:55 PM 53.6 °F - 35.6 °F 51% 29.96 in 10.0 mi ESE 13.8 mph 20.7 mph N/A   Clear
6:15 PM 53.6 °F - 33.8 °F 47% 29.95 in 10.0 mi East 15.0 mph 20.7 mph N/A   Clear
6:35 PM 53.6 °F - 33.8 °F 47% 29.94 in 10.0 mi East 13.8 mph 21.9 mph N/A   Clear
6:55 PM 53.6 °F - 33.8 °F 47% 29.93 in 10.0 mi East 15.0 mph 21.9 mph N/A   Clear
7:15 PM 53.6 °F - 33.8 °F 47% 29.95 in 10.0 mi East 13.8 mph 20.7 mph N/A   Clear
7:35 PM 53.6 °F - 33.8 °F 47% 29.95 in 10.0 mi East 10.4 mph 19.6 mph N/A   Clear
7:55 PM 53.6 °F - 35.6 °F 51% 29.96 in 10.0 mi East 9.2 mph 18.4 mph N/A   Clear
8:15 PM 51.8 °F - 33.8 °F 50% 29.99 in 10.0 mi East 8.1 mph 17.3 mph N/A   Clear
8:35 PM 51.8 °F - 33.8 °F 50% 29.96 in 10.0 mi East 9.2 mph 18.4 mph N/A   Clear
8:55 PM 51.8 °F - 33.8 °F 50% 29.96 in 10.0 mi ESE 9.2 mph - N/A   Clear
9:15 PM 51.8 °F - 33.8 °F 50% 29.92 in 10.0 mi East 11.5 mph 20.7 mph N/A   Clear
9:35 PM 50.0 °F - 35.6 °F 58% 29.95 in 10.0 mi East 8.1 mph 13.8 mph N/A   Clear
9:55 PM 50.0 °F - 35.6 °F 58% 29.95 in 10.0 mi East 8.1 mph - N/A   Clear
10:15 PM 50.0 °F - 35.6 °F 58% 29.94 in 10.0 mi East 11.5 mph - N/A   Clear
10:35 PM 50.0 °F - 35.6 °F 58% 29.93 in 10.0 mi East 11.5 mph - N/A   Clear
10:55 PM 50.0 °F - 35.6 °F 58% 29.92 in 10.0 mi East 11.5 mph - N/A   Clear
11:15 PM 50.0 °F - 35.6 °F 58% 29.92 in 10.0 mi ESE 11.5 mph - N/A   Clear
11:35 PM 48.2 °F - 35.6 °F 62% 29.93 in 10.0 mi East 9.2 mph - N/A   Clear
11:55 PM 48.2 °F - 35.6 °F 62% 29.94 in 10.0 mi East 9.2 mph - N/A   Clear